Location: Silent Lake
(44.9206°N, 78.0708°W)
Time: 06:42:37
(UTC-04:00)

CZ-2C R/B - Pass Details

Date: 19 April 2018
Orbit: 785 x 870 km, 98.3° (Epoch: 20 September)

Event Time Altitude Azimuth Distance (km) Brightness Sun altitude
Rises 22:29:43 0° 29° (NNE) 3,343 6.0 -22.8°
Reaches altitude 10° 22:32:48 10° 47° (NE) 2,422 5.1 -23.2°
Enters shadow 22:34:37 16° 66° (ENE) 2,051 4.5 -23.4°
